Weather History for KPKD - January, 2012

Change the Weather History Date:

Thursday, January 5, 2012

  Actual Average Record
Temperature  
Mean Temperature 33 °F -  
Max Temperature 51 °F 15 °F 51 °F (2012)
Min Temperature 15 °F -4 °F -33 °F (2014)
Degree Days  
Heating Degree Days 32    
Moisture  
Dew Point 24 °F    
Average Humidity 74    
Maximum Humidity 93    
Minimum Humidity 46    
Precipitation  
Precipitation 0.00 in - - ()
Sea Level Pressure  
Sea Level Pressure 29.70 in    
Wind  
Wind Speed 6 mph (SW)    
Max Wind Speed 24 mph    
Max Gust Speed 33 mph    
Visibility 8 miles    
Events Fog    
Averages and records for this station are not official NWS values.
T = Trace of Precipitation, MM = Missing Value Source: NWS Daily Summary

Daily Weather History Graph

Daily Weather History Graph

Search for Another Location

Airport or City:

Trip Planner

Search our weather history database for the weather conditions in past years. The results will help you decide how hot, cold, wet, or windy it might be!

Date:

Astronomy

Jan. 05, 2012 Rise Set
Actual Time 8:05 AM CST 4:45 PM CST
Civil Twilight 7:30 AM CST 5:20 PM CST
Nautical Twilight 6:52 AM CST 5:59 PM CST
Astronomical Twilight 6:15 AM CST 6:36 PM CST
Moon 1:49 PM CST (1/5) 4:51 AM CST (1/5)
Length of Visible Light 9h 50m
Length of Day
8h 40m
Waxing Gibbous, 88% of the Moon is Illuminated
Jan 5
Waxing Gibbous
Jan 9
Full
Jan 16
Last Quarter
Jan 23
New
Jan 30
First Quarter

Hourly Weather History & Observations

Time (CST) Temp. Windchill Dew Point Humidity Pressure Visibility Wind Dir Wind Speed Gust Speed Precip Events Conditions
12:08 AM 15.8 °F - 14.0 °F 93% 29.88 in 0.2 mi Calm Calm - N/A Fog Light Freezing Fog
12:37 AM 15.8 °F - 14.0 °F 93% 29.87 in 0.8 mi Calm Calm - N/A   Mist
12:41 AM 15.8 °F - 12.2 °F 86% 29.87 in 1.2 mi Calm Calm - N/A   Scattered Clouds
12:53 AM 16.0 °F - 12.9 °F 88% 29.94 in 3.0 mi Calm Calm - N/A   Partly Cloudy
1:17 AM 15.8 °F 10.2 °F 12.2 °F 86% 29.85 in 1.5 mi South 3.5 mph - N/A   Scattered Clouds
1:25 AM 15.8 °F 10.2 °F 12.2 °F 86% 29.85 in 1.5 mi South 3.5 mph - N/A   Mostly Cloudy
1:29 AM 15.8 °F 10.2 °F 12.2 °F 86% 29.85 in 3.0 mi South 3.5 mph - N/A   Mostly Cloudy
1:53 AM 17.1 °F 10.0 °F 14.0 °F 88% 29.89 in 7.0 mi South 4.6 mph - N/A   Partly Cloudy
2:53 AM 19.9 °F 13.4 °F 17.1 °F 89% 29.86 in 6.0 mi South 4.6 mph - N/A   Clear
3:53 AM 23.0 °F 15.8 °F 19.9 °F 88% 29.83 in 7.0 mi SE 5.8 mph - N/A   Clear
4:53 AM 21.9 °F 14.5 °F 19.9 °F 92% 29.80 in 7.0 mi SE 5.8 mph - N/A   Clear
5:53 AM 23.0 °F 17.0 °F 21.0 °F 92% 29.78 in 7.0 mi SE 4.6 mph - N/A   Clear
6:53 AM 21.9 °F 13.4 °F 19.9 °F 92% 29.75 in 10.0 mi South 6.9 mph - N/A   Clear
7:53 AM 26.1 °F 20.5 °F 23.0 °F 88% 29.72 in 10.0 mi SSW 4.6 mph - N/A   Clear
8:53 AM 26.6 °F 19.1 °F 24.8 °F 93% 29.64 in 10.0 mi SW 6.9 mph - N/A   Clear
9:53 AM 35.1 °F 26.4 °F 28.0 °F 76% 29.67 in 10.0 mi SW 12.7 mph - N/A   Clear
10:53 AM 41.0 °F 33.1 °F 28.0 °F 60% 29.64 in 10.0 mi WSW 15.0 mph - N/A   Clear
11:53 AM 43.0 °F 36.8 °F 30.0 °F 60% 29.62 in 10.0 mi West 11.5 mph - N/A   Clear
12:53 PM 48.9 °F - 30.0 °F 48% 29.60 in 10.0 mi West 15.0 mph - N/A   Clear
1:53 PM 51.1 °F - 30.9 °F 46% 29.58 in 10.0 mi West 15.0 mph - N/A   Clear
2:53 PM 51.1 °F - 32.0 °F 48% 29.56 in 10.0 mi WSW 6.9 mph - N/A   Clear
3:53 PM 46.9 °F - 30.9 °F 54% 29.56 in 10.0 mi SW 9.2 mph - N/A   Clear
4:53 PM 42.1 °F 38.4 °F 30.9 °F 65% 29.57 in 10.0 mi SW 5.8 mph - N/A   Clear
5:53 PM 42.1 °F 36.1 °F 30.9 °F 65% 29.55 in 10.0 mi West 10.4 mph - N/A   Clear
6:53 PM 44.1 °F 37.7 °F 32.0 °F 63% 29.55 in 10.0 mi West 12.7 mph - N/A   Clear
7:53 PM 46.0 °F 38.8 °F 30.9 °F 56% 29.54 in 10.0 mi West 18.4 mph - N/A   Clear
8:53 PM 43.0 °F 35.7 °F 30.9 °F 62% 29.55 in 10.0 mi West 15.0 mph - N/A   Clear
9:53 PM 44.1 °F 36.5 °F 30.9 °F 60% 29.55 in 10.0 mi West 17.3 mph - N/A   Clear
10:53 PM 43.0 °F 35.1 °F 30.0 °F 60% 29.55 in 10.0 mi West 17.3 mph 26.5 mph N/A   Clear
11:53 PM 42.1 °F 32.3 °F 30.0 °F 62% 29.56 in 10.0 mi West 24.2 mph 33.4 mph N/A   Clear